User: anonymous   Login
Location: Unspecified
(0.0000°N, 0.0000°E)
Time: 16:35:29
(UTC+00:00)
Language:

Hubble Space Telescope - Orbit

View from above orbital plane
View from above orbital plane
View from above satellite
View from above satellite

Ground track
Ground track

The orbit data is extracted from the following two-line orbital elements,

1 20580U 90037B   20016.81437404  .00000346  00000-0  10036-4 0  9991
2 20580  28.4686 249.1890 0002575 246.4813 190.7759 15.09326331432966
Epoch (UTC): 16 January 2020 19:32:41
Eccentricity: 0.0002575
inclination: 28.4686°
perigee height: 536 km
apogee height: 540 km
right ascension of ascending node: 249.1890°
argument of perigee: 246.4813°
revolutions per day: 15.09326331
mean anomaly at epoch: 190.7759°
orbit number at epoch: 43296

The dashed part of the orbit path shows where the satellite is in the earth's shadow,  

DLR